Location: Villa Nueva
(1.1392°N, 76.6655°W)
Time: 17:12:00
(UTC+00:00)

Daily predictions for brighter satellites

Satellite Brightness Start Highest point End
(mag) Time Altitude Azimuth Time Altitude Azimuth Time Altitude Azimuth
Ariane H10+ 3.7 22:55:47 10° W 22:59:38 66° S 23:21:26 10° E
Cosmos 1933 Rocket 4.4 23:10:44 10° NNE 23:14:30 28° E 23:18:17 10° SE
CZ-4 R/B 2.7 23:11:50 10° SE 23:14:59 21° ENE 23:18:05 10° NNE
Cosmos 1633 4.4 23:13:36 10° NNW 23:16:55 36° W 23:20:15 10° SSW
COSMOS 2455 3.9 23:11:12 10° SW 23:16:56 47° WNW 23:22:40 10° N
YAOGAN 1 4.1 23:14:56 10° ESE 23:17:38 16° ENE 23:20:19 10° NE
COSMO-SKYMED 1 4.2 23:14:21 10° N 23:18:21 38° WNW 23:22:23 10° SW
ATLAS 2AS CENTAUR R/B 3.0 23:12:51 10° SSW 23:20:09 87° ESE 23:28:01 10° NNE
GPS 2-12 Rocket1 3.2 23:16:23 10° WSW 23:21:03 75° SSE 23:25:49 10° ENE
Cosmos 2034 Rocket 4.1 23:15:12 10° N 23:21:33 83° E 23:27:54 10° S
CORIOLIS 4.4 23:18:20 10° S 23:23:41 77° WSW 23:29:04 10° NNW
ARIANE 5 DEB (SYLDA) 3.3 23:21:10 10° WSW 23:24:35 37° S 23:27:07 10° ESE
SMAP 4.4 23:22:46 10° S 23:27:13 45° WSW 23:31:38 10° NNW
NOAA 12 4.1 23:23:16 10° SSE 23:28:37 85° ENE 23:33:56 10° N
Cosmos 1371 Rocket 4.4 23:24:39 10° N 23:29:26 39° ENE 23:34:14 10° SE
Cosmos 1315 Rocket 3.2 23:26:24 10° SSE 23:30:07 41° E 23:33:48 10° NNE
Cosmos 2237 4.3 23:29:36 10° SSW 23:35:20 83° WNW 23:41:03 10° NNE
Cosmos 1634 Rocket 4.4 23:31:03 10° NNE 23:36:41 38° E 23:42:21 10° SSE
Cosmos 2360 Rocket 2.5 23:33:08 10° SSW 23:38:44 70° WNW 23:44:19 10° N
YAOGAN 6 2.5 23:35:49 10° SSE 23:39:18 61° E 23:42:45 10° N
CZ-4 R/B 4.4 23:39:07 10° SSE 23:43:11 60° ENE 23:47:14 10° N
ARIANE 5 DEB (SYLDA) 3.9 23:30:23 10° W 23:43:48 72° S 23:46:19 18° E
Cosmos 1470 Rocket 4.0 23:40:33 10° NNW 23:44:55 65° W 23:49:18 10° S
SL-4 R/B 3.8 23:43:31 10° SSE 23:45:11 13° SE 23:45:46 12° ESE
Cosmos 1782 3.6 23:42:21 10° SSW 23:46:18 54° W 23:50:13 10° N
COSMOS 2428 3.5 23:41:59 10° SSE 23:46:57 32° ESE 23:50:07 19° NE
SeaSat 1 3.8 23:44:28 10° ESE 23:50:13 14° NE 23:51:16 10° NNE
Nadezhda 4 Rocket 4.5 23:43:48 10° SSE 23:49:28 37° E 23:55:01 11° NNE
